Starlink 30257

operational
NORAD ID: 57526 Int'l Des: 2023-115 Owner: SPXS Country: US Constellation: starlink
LEOCIRCULAR

About Starlink 30257

Description loading...

Live Position

Loading 3D Globe...

Upcoming Passes

Altitude History

Altitude vs Time

uPlot chart will show altitude changes over time

Two-Line Element Set

1 57526U 23115F 25306.45267830 .00000477 00000-0 50419-4 0 9999
2 57526 43.0057 336.2124 0001218 274.6688 85.4015 15.02532341123173
Epoch: Nov 2, 2025 • Age: 26 hours

Current Status

Altitude 558.4 km
Velocity 7.59 km/s
Sub-Earth Point 17.04°N, 118.9°E
Launch Date Aug 8, 2023
Age 2.2 years
Type internet

Technical Details

Classification Payload
Mass 730.00 kg
Dry Mass 700.00 kg
Total Mass 730.00 kg
Length 0.30 m
Diameter 4.10 m
Span 29.00 m
Shape Box + pan
Manufacturer SPXS
Bus Type Starlink V2M
Phase Status In Orbit
Owner/State SPXS/US

Large Constellations

Loading constellations...